Location: Acheville
(50.3840°N, 2.8827°E)
Time: 13:06:02
(UTC+00:00)

Ariane Rocket - Pass Details

Date: 24 October 2021
Orbit: 759 x 770 km, 98.7° (Epoch: 05 December)

Event Time Altitude Azimuth Distance (km) Brightness Sun altitude
Exits shadow 19:44:25 28° 2° (N) 1,429 4.5 -30.0°
Drops below altitude 10° 19:46:51 10° 352° (N) 2,326 5.8 -30.4°
Sets 19:49:12 0° 348° (NNW) 3,256 6.6 -30.7°
